Wilmington, DE

4:31 PM EST on December 08, 2019 (GMT -0500)
New Castle County

Weather History for KILG - November, 2019

Change the Weather History Date:

Saturday, November 16, 2019

  Actual Average Record
Temperature  
Mean Temperature 38 °F 46 °F  
Max Temperature 44 °F 56 °F 75 °F (2005)
Min Temperature 32 °F 37 °F 15 °F (1933)
Degree Days  
Heating Degree Days 27 18  
Month to date heating degree days 360 259  
Since 1 July heating degree days 530 603  
Cooling Degree Days 0 0  
Month to date cooling degree days 0 0  
Year to date cooling degree days 1508 1145  
Moisture  
Dew Point 13 °F    
Average Humidity 44    
Maximum Humidity 69    
Minimum Humidity 19    
Precipitation  
Precipitation 0.00 in 0.10 in 1.32 in (2002)
Month to date precipitation 0.21 1.56  
Year to date precipitation 42.30 38.06  
Snow  
Snow 0.00 in 0.00 in T in (2018)
Month to date snowfall T 0.0  
Since 1 July snowfall T 0.0  
Since 1 September snowfall T 0.0  
Snow Depth 0.00 in    
Sea Level Pressure  
Sea Level Pressure 30.37 in    
Wind  
Wind Speed 14 mph (NE)    
Max Wind Speed 28 mph    
Max Gust Speed 32 mph    
Visibility 10 miles    
Events      
T = Trace of Precipitation, MM = Missing Value Source: NWS Daily Summary

Daily Weather History Graph

Daily Weather History Graph

Search for Another Location

Airport or City:

Astronomy

Nov. 16, 2019 Rise Set
Actual Time 6:47 AM EST 4:46 PM EST
Civil Twilight 6:18 AM EST 5:15 PM EST
Nautical Twilight 5:46 AM EST 5:47 PM EST
Astronomical Twilight 5:14 AM EST 6:19 PM EST
Moon 8:16 PM EST (11/16) 10:39 AM EST (11/16)
Length of Visible Light 10h 56m
Length of Day
9h 58m
Waning Gibbous, 82% of the Moon is Illuminated
Nov 16
Waning Gibbous
Nov 19
Last Quarter
Nov 26
New
Dec 4
First Quarter
Dec 12
Full

Hourly Weather History & Observations

Time (EST) Temp. Windchill Dew Point Humidity Pressure Visibility Wind Dir Wind Speed Gust Speed Precip Events Conditions
12:51 AM 37.9 °F 32.1 °F 27.0 °F 65% 30.25 in 10.0 mi North 8.1 mph - N/A   Clear
1:51 AM 37.0 °F 29.8 °F 27.0 °F 67% 30.26 in 10.0 mi North 10.4 mph - N/A   Clear
2:51 AM 37.0 °F 31.0 °F 25.0 °F 62% 30.27 in 10.0 mi North 8.1 mph - N/A   Clear
3:51 AM 35.1 °F 28.6 °F 24.1 °F 64% 30.29 in 10.0 mi North 8.1 mph - N/A   Clear
4:51 AM 34.0 °F 26.6 °F 24.1 °F 67% 30.30 in 10.0 mi North 9.2 mph - N/A   Clear
5:51 AM 35.1 °F 28.6 °F 24.1 °F 64% 30.33 in 10.0 mi North 8.1 mph - N/A   Clear
6:51 AM 33.1 °F 24.9 °F 24.1 °F 70% 30.37 in 10.0 mi NNE 10.4 mph - N/A   Clear
7:51 AM 37.9 °F 28.5 °F 21.9 °F 53% 30.39 in 10.0 mi NNE 17.3 mph 28.8 mph N/A   Clear
8:51 AM 39.9 °F 30.5 °F 21.0 °F 47% 30.40 in 10.0 mi NNE 19.6 mph 26.5 mph N/A   Clear
9:51 AM 42.1 °F 33.3 °F 12.0 °F 29% 30.40 in 10.0 mi NE 19.6 mph 27.6 mph N/A   Clear
10:31 AM 42.1 °F 32.6 °F 9.0 °F 26% 30.41 in 10.0 mi NE 23.0 mph 31.1 mph N/A   Clear
10:51 AM 43.0 °F 34.8 °F 10.0 °F 26% 30.42 in 10.0 mi ENE 18.4 mph - N/A   Clear
11:51 AM 43.0 °F 33.8 °F 7.0 °F 23% 30.42 in 10.0 mi ENE 23.0 mph 32.2 mph N/A   Clear
12:51 PM 43.0 °F 34.0 °F 9.0 °F 25% 30.39 in 10.0 mi NE 21.9 mph 29.9 mph N/A   Clear
1:51 PM 44.1 °F 36.5 °F 7.0 °F 22% 30.38 in 10.0 mi NE 17.3 mph 26.5 mph N/A   Clear
2:51 PM 44.1 °F 37.1 °F 5.0 °F 20% 30.39 in 10.0 mi ENE 15.0 mph 26.5 mph N/A   Clear
3:51 PM 42.1 °F 34.2 °F 6.1 °F 23% 30.40 in 10.0 mi NE 16.1 mph 25.3 mph N/A   Clear
4:51 PM 39.9 °F 32.1 °F 7.0 °F 26% 30.40 in 10.0 mi East 13.8 mph - N/A   Clear
5:51 PM 37.9 °F 30.5 °F 9.0 °F 30% 30.43 in 10.0 mi ENE 11.5 mph - N/A   Clear
6:51 PM 37.0 °F 29.8 °F 9.0 °F 31% 30.44 in 10.0 mi ENE 10.4 mph - N/A   Clear
7:51 PM 37.0 °F 28.1 °F 8.1 °F 30% 30.41 in 10.0 mi NE 15.0 mph - N/A   Clear
8:51 PM 36.0 °F 27.1 °F 5.0 °F 27% 30.39 in 10.0 mi NNE 13.8 mph - N/A   Mostly Cloudy
9:51 PM 36.0 °F 27.1 °F 5.0 °F 27% 30.39 in 10.0 mi NNE 13.8 mph - N/A   Overcast
10:51 PM 36.0 °F 27.5 °F 5.0 °F 27% 30.40 in 10.0 mi NNE 12.7 mph - N/A   Overcast
11:51 PM 35.1 °F 25.2 °F 5.0 °F 28% 30.39 in 10.0 mi NE 16.1 mph - N/A   Overcast